Hovedside
METAR-TAF:

METAR-TAF

Lufthavner :

Mosjøen lufthavn. Kjærstad

Mosjøen, Norge

breddegrad: 65-48N, lengdegrad: 013-08E, høyde over havet: 70 m

Gjeldene værobservasjon

Denne rapporten ble laget for 7 timer og 44 minutter siden, klokken 20:50 UTC
Vind 2 kt fra skiftende retning
Temperatur -10°C
Luftfuktighet 92%
Trykk 1022 hPa
Sikt 10 km eller mer
Få skyer i en høyde av 3500 ft

METAR: ENMS 182050Z VRB02KT 9999 FEW035 M10/M11 Q1022 RMK WIND 412FT VRB01KT

Tid: 05:34 (04:34 UTC)


TAF: fraværende

Værobservasjoner og værvarsel for over 4000 flyplasser (METAR- og TAF-rapporter).

Tilgjengelige stasjoner er representert av de røde og gule prikkene på kartet.

Hold musepekeren over prikken for å se navnet på stasjonen.

Klikk så for å se værobservasjoner og -varsler.

For å forandre kartet kan du klikke på den grønne knappen med svart kryss for å zoome inn, på den grønne knappen med strek for å zoome ut, eller på de grønne pilene for å se tilstøtende kart.


METAR-TAF: